Regional Weather Roundup
Issued by NWS

Home | Current Version | Previous Version | Text Only | Print | Product List | Glossary Off
Versions: 1 2 3 4 5 6 7 8 9 10 11 12 13 14 15 16 17 18 19 20 21 22 23 24 25 26 27 28 29 30 31 32 33 34 35 36 37 38 39 40 41 42 43 44 45 46 47 48 49 50

000
ASUS43 KDTX 271201
RWRMI
MICHIGAN HOURLY REGIONAL WEATHER ROUNDUP
NATIONAL WEATHER SERVICE DETROIT/PONTIAC MI
700 AM EST MON FEB 27 2017

NOTE: "FAIR" INDICATES FEW OR NO CLOUDS BELOW 12,000 FEET WITH NO
SIGNIFICANT WEATHER AND/OR OBSTRUCTION TO VISIBILITY.

MIZ047>049-052>055-059>063-066>070-074>076-081>083-271300-
SOUTHEAST LOWER MICHIGAN

CITY           SKY/WX    TMP DP  RH WIND       PRES   REMARKS
ADRIAN         CLEAR     29  23  78 W5        30.18R WCI  24
6HR MIN TEMP:  28; 6HR MAX TEMP:  32;

ALMA           CLEAR     31  25  78 W5        30.13R WCI  26
ANN ARBOR      CLEAR     26  24  92 S3        30.17R
BAD AXE        MOCLDY    32  26  78 W3        30.12S
6HR MIN TEMP:  31; 6HR MAX TEMP:  37;

CARO           CLEAR     32  26  78 SW5       30.12R WCI  27
DETROIT CITY   CLEAR     34  24  67 SW9       30.18R WCI  27
6HR MIN TEMP:  34; 6HR MAX TEMP:  39;

DETROIT        PTCLDY    31  23  72 SW6       30.19R WCI  25
6HR MIN TEMP:  31; 6HR MAX TEMP:  37;

FLINT          CLEAR     32  24  72 SW7       30.14R WCI  26
6HR MIN TEMP:  32; 6HR MAX TEMP:  39;

GROSSE ILE     CLOUDY    33  24  68 SW5       30.18R WCI  29
6HR MIN TEMP:  33; 6HR MAX TEMP:  38;

HILLSDALE      CLEAR     32  23  69 SW3       30.14S
HOWELL         CLEAR     32  23  69 SW6       30.14R WCI  27
6HR MIN TEMP:  32; 6HR MAX TEMP:  37;


CITY           SKY/WX    TMP DP  RH WIND       PRES   REMARKS
JACKSON        CLOUDY    34  24  67 SW8       30.15R WCI  27
6HR MIN TEMP:  34; 6HR MAX TEMP:  38;

LAMBERTVILLE   CLOUDY    34  22  62 SW5       30.19R WCI  30
6HR MIN TEMP:  34; 6HR MAX TEMP:  40;

LANSING        CLEAR     30  22  72 SW6       30.15R WCI  24
6HR MIN TEMP:  30; 6HR MAX TEMP:  38;

LAPEER         FAIR      35  26  69 W7        30.14R WCI  29
6HR MIN TEMP:  35; 6HR MAX TEMP:  39;

MASON          CLEAR     33  26  76 SW3       30.15R
MONROE         CLOUDY    32  24  72 SW5       30.18R WCI  27
6HR MIN TEMP:  31; 6HR MAX TEMP:  37;

MT. CLEMENS    CLEAR     33  24  70 SW8       30.15R WCI  25
6HR MIN TEMP:  33; 6HR MAX TEMP:  38;

PONTIAC        PTCLDY    32  22  66 S5        30.13R WCI  27
6HR MIN TEMP:  31; 6HR MAX TEMP:  37;

PORT HOPE        N/A     32  27  81 N8        30.11R WCI  25
6HR MIN TEMP:  32; 6HR MAX TEMP:  37;

PORT HURON     CLEAR     32  23  69 S7        30.16R WCI  26
TRI CITIES     CLEAR     29  25  85 W3        30.14R
6HR MIN TEMP:  29; 6HR MAX TEMP:  38;

MIDLAND        FAIR      29  24  82 CALM      30.12R
6HR MIN TEMP:  29; 6HR MAX TEMP:  38;

TROY           CLEAR     32  22  66 SW6       30.18R WCI  27
SAGINAW HB     CLEAR     32  25  74 SW5       30.13R WCI  27
$$
MIZ043>046-050>051-056>058-064>065-071>073-077>080-271300-
SOUTHWEST LOWER MICHIGAN

CITY           SKY/WX    TMP DP  RH WIND       PRES   REMARKS
BATTLE CREEK   PTCLDY    31  24  75 SW6       30.15R WCI  25
6HR MIN TEMP:  29; 6HR MAX TEMP:  36;

BENTON HARBOR  MOCLDY    34  27  75 SW3       30.15R
6HR MIN TEMP:  33; 6HR MAX TEMP:  40;

BIG RAPIDS     CLEAR     25  23  89 CALM      30.10R
6HR MIN TEMP:  25; 6HR MAX TEMP:  34;

COLDWATER      PTCLDY    32  24  70 SW7       30.15S WCI  26
6HR MIN TEMP:  32; 6HR MAX TEMP:  36;

FREMONT        FAIR      25  24  96 CALM      30.11S
HOLLAND        CLEAR     30  26  85 CALM      30.14R
6HR MIN TEMP:  29; 6HR MAX TEMP:  39;

GRAND RAPIDS   CLEAR     32  27  81 W3        30.13R
6HR MIN TEMP:  30; 6HR MAX TEMP:  39;

IONIA          FAIR      30  27  88 W3        30.13R
6HR MIN TEMP:  30; 6HR MAX TEMP:  37;

KALAMAZOO      PTCLDY    32  23  69 SW7       30.15R WCI  26
6HR MIN TEMP:  31; 6HR MAX TEMP:  38;

LUDINGTON      CLEAR     26  24  93 E3        30.11R
6HR MIN TEMP:  25; 6HR MAX TEMP:  36;

MARSHALL       PTCLDY    33  24  70 SW5       30.15R WCI  28
6HR MIN TEMP:  33; 6HR MAX TEMP:  37;

MOUNT PLEASANT CLEAR     29  25  84 SW3       30.11R
6HR MIN TEMP:  29; 6HR MAX TEMP:  35;

MUSKEGON       CLEAR     29  25  85 CALM      30.13R
6HR MIN TEMP:  27; 6HR MAX TEMP:  40;

SOUTH HAVEN    MOCLDY    32  30  91 CALM      30.15R
$$
MIZ016>042-271300-
NORTHERN LOWER MICHIGAN

CITY           SKY/WX    TMP DP  RH WIND       PRES   REMARKS
ALPENA         MOCLDY    21  18  88 CALM      30.13R
6HR MIN TEMP:  19; 6HR MAX TEMP:  31; 6HR PCP: TRACE;

BEAVER ISLAND  PTCLDY    14  12  91 CALM      30.10R
6HR MIN TEMP:  14; 6HR MAX TEMP:  24;

BELLAIRE       MOCLDY    22  18  85 CALM      30.12S
6HR MIN TEMP:  22; 6HR MAX TEMP:  30;

CADILLAC       MOCLDY    16  14  92 CALM      30.08R
CHARLEVOIX     CLEAR     24  13  64 W6        30.13R WCI  17
FRANKFORT      CLEAR     20  16  84 CALM      30.11S
GAYLORD        PTCLDY    20  12  71 CALM      30.07R
6HR MIN TEMP:  20; 6HR MAX TEMP:  28;

GRAYLING       CLOUDY    25  16  67 W3        30.10R
6HR MIN TEMP:  25; 6HR MAX TEMP:  32;

HARBOR SPRINGS CLEAR     16  12  85 NE3       30.11R
HOUGHTON LAKE  CLEAR     21  17  84 CALM      30.10R
6HR MIN TEMP:  21; 6HR MAX TEMP:  31;

MANISTEE       CLEAR     21  18  88 CALM      30.11R
OSCODA         PTCLDY    24  21  88 W3        30.12R
6HR MIN TEMP:  23; 6HR MAX TEMP:  30;

PELLSTON       CLEAR      9   5  84 CALM      30.11R
6HR MIN TEMP:   8; 6HR MAX TEMP:  26;

ROGERS CITY    CLEAR     19  14  83 SW3       30.13R
TRAVERSE CITY  PTCLDY    24  16  71 CALM      30.11R
6HR MIN TEMP:  24; 6HR MAX TEMP:  32;

$$
MIZ007>008-015-271300-
EASTERN UPPER MICHIGAN

CITY           SKY/WX    TMP DP  RH WIND       PRES   REMARKS
KINROSS        CLEAR     11   8  88 SW7       30.08R WCI   0
6HR MIN TEMP:  11; 6HR MAX TEMP:  18;

MACKINAC ISLAN CLEAR     20  15  81 W5        30.09R WCI  14
6HR MIN TEMP:  20; 6HR MAX TEMP:  23;

NEWBERRY       CLEAR      6   6  97 SW5       30.06R WCI  -2
6HR MIN TEMP:   3; 6HR MAX TEMP:  18;

S. S. MARIE    MOCLDY    19  12  74 S6        30.07R WCI  11
6HR MIN TEMP:  19; 6HR MAX TEMP:  24; 6HR PCP: TRACE;

MUNISING         N/A     10   5  80 S8        30.07R WCI  -2
6HR MIN TEMP:  10; 6HR MAX TEMP:  21;

$$
MIZ004>006-011>014-085-271300-
CENTRAL UPPER MICHIGAN

CITY           SKY/WX    TMP DP  RH WIND       PRES   REMARKS
MANISTIQUE     CLEAR      8   4  83 W3        30.08S
6HR MIN TEMP:   8; 6HR MAX TEMP:  16;

ESCANABA       CLEAR      4   1  88 CALM      30.09S
6HR MIN TEMP:   4; 6HR MAX TEMP:  19;

MENOMINEE      CLOUDY    18  13  80 CALM      30.10S
6HR MIN TEMP:  16; 6HR MAX TEMP:  26;

SAWYER-GWINN   CLEAR      0  -2  92 CALM      30.03S
$$
MIZ001>003-009>011-084-271300-
WESTERN UPPER MICHIGAN

CITY           SKY/WX    TMP DP  RH WIND       PRES   REMARKS
IRON MOUNTAIN  CLOUDY     4  -1  80 CALM      30.03R
6HR MIN TEMP:   0; 6HR MAX TEMP:  10;

HOUGHTON       PTCLDY     9   2  73 CALM      29.98R
6HR MIN TEMP:   8; 6HR MAX TEMP:  18;

COPPER HARBOR    N/A      6   2  83 SW7       30.02R WCI  -6
6HR MIN TEMP:   6; 6HR MAX TEMP:  23;

IRONWOOD       CLOUDY    13   6  74 CALM      29.98S
6HR MIN TEMP:  -5; 6HR MAX TEMP:  13;

$$

ABBREVIATIONS USED IN REMARKS
   TC - TEMPERATURE IN CELSIUS
  WCI - WIND CHILL INDEX
   HX - HEAT INDEX
  VSB - VISIBILITY





USA.gov is the U.S. government's official web portal to all federal, state and local government web resources and services.